When you browse on this site, cookies collect data to enhance your experience and personalize the content and advertising you see.
Visit our Privacy Policy to learn more. By continuing to use the site, you agree to this use of cookies and data.
  • Em Portugal
  • Lista de países
  • Para 7 dias
  • Temperatura da água
  • Mapas de satélite
  • Mapa do tempo
  • Widgets de tempo
  • user-avatar
    Iniciar Sessão

    Previsão horária em Silkhet

    Hoje, 20 Fevereiro, Quarta-feira

    Tempo Temperatura Precipitação Vento Pressão Humidade
    00:00 +18°C° 0 mm 2 m/s 761 mmHg 52%
    01:00 +19°C° 0 mm 1 m/s 761 mmHg 52%
    02:00 +19°C° 0 mm 1 m/s 761 mmHg 53%
    03:00 +19°C° 0 mm 1 m/s 761 mmHg 53%
    04:00 +18°C° 0 mm 1 m/s 761 mmHg 54%
    05:00 +17°C° 0 mm 2 m/s 761 mmHg 56%
    06:00 +17°C° 0 mm 2 m/s 761 mmHg 63%
    07:00 +19°C° 0 mm 2 m/s 761 mmHg 61%
    08:00 +21°C° 0 mm 2 m/s 762 mmHg 58%
    09:00 +24°C° 0 mm 2 m/s 762 mmHg 55%
    10:00 +26°C° 0 mm 2 m/s 762 mmHg 51%
    11:00 +28°C° 0 mm 2 m/s 762 mmHg 47%
    12:00 +30°C° 0 mm 2 m/s 762 mmHg 46%
    13:00 +31°C° 0 mm 2 m/s 762 mmHg 42%
    14:00 +31°C° 0 mm 3 m/s 761 mmHg 38%
    15:00 +33°C° 0 mm 3 m/s 761 mmHg 34%
    16:00 +30°C° 0 mm 2 m/s 761 mmHg 40%
    17:00 +28°C° 0 mm 2 m/s 761 mmHg 45%
    18:00 +26°C° 0 mm 1 m/s 761 mmHg 50%
    19:00 +25°C° 0 mm 1 m/s 762 mmHg 53%
    20:00 +23°C° 0 mm 2 m/s 762 mmHg 56%
    21:00 +21°C° 0 mm 2 m/s 763 mmHg 59%
    22:00 +21°C° 0 mm 2 m/s 763 mmHg 60%
    23:00 +20°C° 0 mm 2 m/s 763 mmHg 62%

    Amanhã, 21 Fevereiro, Quinta-feira

    Tempo Temperatura Precipitação Vento Pressão Humidade
    00:00 +19°C° 0 mm 2 m/s 763 mmHg 63%
    01:00 +19°C° 0 mm 2 m/s 763 mmHg 66%
    02:00 +18°C° 0 mm 2 m/s 763 mmHg 69%
    03:00 +19°C° 0 mm 1 m/s 762 mmHg 72%
    04:00 +18°C° 0 mm 2 m/s 762 mmHg 74%
    05:00 +17°C° 0 mm 2 m/s 762 mmHg 76%
    06:00 +17°C° 0 mm 2 m/s 762 mmHg 79%
    07:00 +19°C° 0 mm 2 m/s 763 mmHg 72%
    08:00 +21°C° 0 mm 3 m/s 763 mmHg 65%
    09:00 +24°C° 0 mm 3 m/s 763 mmHg 58%
    10:00 +26°C° 0 mm 2 m/s 763 mmHg 51%
    11:00 +29°C° 0 mm 2 m/s 763 mmHg 43%
    12:00 +31°C° 0 mm 1 m/s 762 mmHg 36%
    13:00 +31°C° 0 mm 1 m/s 761 mmHg 35%
    14:00 +32°C° 0 mm 2 m/s 760 mmHg 34%
    15:00 +33°C° 0 mm 3 m/s 759 mmHg 32%
    16:00 +30°C° 0 mm 2 m/s 759 mmHg 37%
    17:00 +28°C° 0 mm 2 m/s 759 mmHg 43%
    18:00 +26°C° 0 mm 1 m/s 759 mmHg 48%
    19:00 +25°C° 0 mm 1 m/s 760 mmHg 50%
    20:00 +24°C° 0 mm 1 m/s 760 mmHg 53%
    21:00 +23°C° 0 mm 1 m/s 761 mmHg 55%
    22:00 +23°C° 0 mm 1 m/s 761 mmHg 57%
    23:00 +22°C° 0 mm 1 m/s 760 mmHg 58%

    Depois de amanhã, 22 Fevereiro, Sexta-feira

    Tempo Temperatura Precipitação Vento Pressão Humidade
    00:00 +21°C° 0 mm 1 m/s 760 mmHg 60%
    01:00 +21°C° 0 mm 1 m/s 760 mmHg 61%
    02:00 +20°C° 0 mm 1 m/s 759 mmHg 62%
    03:00 +20°C° 0 mm 1 m/s 759 mmHg 64%
    04:00 +19°C° 0 mm 1 m/s 759 mmHg 65%
    05:00 +19°C° 0 mm 1 m/s 759 mmHg 67%
    06:00 +19°C° 0 mm 1 m/s 759 mmHg 68%
    07:00 +21°C° 0 mm 1 m/s 759 mmHg 63%
    08:00 +23°C° 0 mm 2 m/s 760 mmHg 58%
    09:00 +25°C° 0 mm 2 m/s 761 mmHg 52%
    10:00 +27°C° 0 mm 2 m/s 760 mmHg 47%
    11:00 +29°C° 0 mm 2 m/s 760 mmHg 42%
    12:00 +31°C° 0 mm 2 m/s 759 mmHg 37%
    13:00 +31°C° 0 mm 2 m/s 758 mmHg 36%
    14:00 +33°C° 0 mm 3 m/s 758 mmHg 35%
    15:00 +33°C° 0 mm 3 m/s 757 mmHg 34%
    16:00 +30°C° 0 mm 2 m/s 757 mmHg 40%
    17:00 +28°C° 0 mm 2 m/s 757 mmHg 45%
    18:00 +26°C° 0 mm 1 m/s 757 mmHg 50%
    19:00 +26°C° 0 mm 1 m/s 757 mmHg 52%
    20:00 +25°C° 0 mm 1 m/s 758 mmHg 54%
    21:00 +24°C° 0 mm 1 m/s 759 mmHg 56%
    22:00 +23°C° 0 mm 1 m/s 758 mmHg 58%
    23:00 +23°C° 0 mm 2 m/s 758 mmHg 60%

    23 Fevereiro, Sábado

    Tempo Temperatura Precipitação Vento Pressão Humidade
    00:00 +21°C° 0 mm 2 m/s 758 mmHg 63%
    01:00 +21°C° 0 mm 2 m/s 758 mmHg 65%
    02:00 +20°C° 0 mm 2 m/s 757 mmHg 67%
    03:00 +19°C° 0 mm 2 m/s 757 mmHg 70%
    04:00 +19°C° 0 mm 2 m/s 757 mmHg 71%
    05:00 +19°C° 0 mm 2 m/s 757 mmHg 72%
    06:00 +18°C° 0 mm 2 m/s 757 mmHg 73%
    07:00 +20°C° 0 mm 2 m/s 757 mmHg 67%
    08:00 +24°C° 0 mm 2 m/s 758 mmHg 61%
    09:00 +26°C° 0 mm 2 m/s 758 mmHg 55%
    10:00 +28°C° 0 mm 2 m/s 758 mmHg 49%
    11:00 +30°C° 0 mm 1 m/s 757 mmHg 44%
    12:00 +33°C° 0 mm 1 m/s 757 mmHg 39%
    13:00 +34°C° 0 mm 2 m/s 756 mmHg 36%
    14:00 +35°C° 0 mm 3 m/s 755 mmHg 34%
    15:00 +35°C° 0 mm 3 m/s 755 mmHg 32%
    16:00 +33°C° 0 mm 3 m/s 755 mmHg 37%
    17:00 +30°C° 0 mm 2 m/s 755 mmHg 42%
    18:00 +28°C° 0 mm 1 m/s 755 mmHg 47%
    19:00 +27°C° 0 mm 1 m/s 756 mmHg 49%
    20:00 +26°C° 0 mm 1 m/s 756 mmHg 51%
    21:00 +25°C° 0 mm 1 m/s 757 mmHg 53%
    22:00 +24°C° 0 mm 1 m/s 757 mmHg 55%
    23:00 +24°C° 0 mm 1 m/s 757 mmHg 56%

    24 Fevereiro, Domingo

    Tempo Temperatura Precipitação Vento Pressão Humidade
    00:00 +23°C° 0 mm 1 m/s 757 mmHg 58%
    01:00 +23°C° 0 mm 1 m/s 756 mmHg 60%
    02:00 +22°C° 0 mm 1 m/s 756 mmHg 63%
    03:00 +21°C° 0 mm 1 m/s 756 mmHg 65%
    04:00 +21°C° 0 mm 1 m/s 756 mmHg 66%
    05:00 +21°C° 0 mm 1 m/s 756 mmHg 68%
    06:00 +20°C° 0 mm 1 m/s 756 mmHg 69%
    07:00 +22°C° 0 mm 1 m/s 757 mmHg 64%
    08:00 +24°C° 0 mm 1 m/s 757 mmHg 59%
    09:00 +26°C° 0 mm 2 m/s 758 mmHg 53%
    10:00 +28°C° 0 mm 1 m/s 758 mmHg 46%
    11:00 +30°C° 0 mm 1 m/s 757 mmHg 38%
    12:00 +32°C° 0 mm 1 m/s 757 mmHg 31%
    13:00 +32°C° 0 mm 2 m/s 756 mmHg 29%
    14:00 +34°C° 0 mm 3 m/s 756 mmHg 28%
    15:00 +34°C° 0 mm 3 m/s 755 mmHg 27%
    16:00 +31°C° 0 mm 2 m/s 755 mmHg 30%
    17:00 +29°C° 0 mm 2 m/s 755 mmHg 34%
    18:00 +28°C° 0 mm 1 m/s 755 mmHg 38%
    19:00 +27°C° 0 mm 1 m/s 756 mmHg 40%
    20:00 +25°C° 0 mm 1 m/s 756 mmHg 42%
    21:00 +24°C° 0 mm 1 m/s 757 mmHg 44%
    22:00 +24°C° 0 mm 1 m/s 757 mmHg 44%
    23:00 +24°C° 0 mm 1 m/s 757 mmHg 44%

    25 Fevereiro, Segunda-feira

    Tempo Temperatura Precipitação Vento Pressão Humidade
    00:00 +21°C° 0 mm 0 m/s 757 mmHg 44%
    01:00 +23°C° 0 mm 1 m/s 757 mmHg 47%
    02:00 +23°C° 0 mm 1 m/s 757 mmHg 50%
    03:00 +23°C° 0 mm 2 m/s 758 mmHg 53%
    04:00 +21°C° 0 mm 2 m/s 758 mmHg 61%
    05:00 +21°C° 0 mm 2 m/s 758 mmHg 69%
    06:00 +20°C° 0 mm 2 m/s 758 mmHg 77%
    07:00 +21°C° 0.3 mm 2 m/s 759 mmHg 77%
    08:00 +22°C° 0.3 mm 1 m/s 759 mmHg 77%
    09:00 +23°C° 0.3 mm 1 m/s 760 mmHg 77%
    10:00 +24°C° 0.1 mm 1 m/s 760 mmHg 72%
    11:00 +25°C° 0.1 mm 1 m/s 759 mmHg 66%
    12:00 +26°C° 0.1 mm 1 m/s 759 mmHg 60%
    13:00 +26°C° 0.1 mm 1 m/s 758 mmHg 61%
    14:00 +25°C° 0.1 mm 1 m/s 758 mmHg 63%
    15:00 +25°C° 0.1 mm 2 m/s 757 mmHg 64%
    16:00 +24°C° 0.1 mm 2 m/s 757 mmHg 68%
    17:00 +22°C° 0.1 mm 3 m/s 757 mmHg 72%
    18:00 +21°C° 0.1 mm 3 m/s 757 mmHg 76%
    19:00 +21°C° 0.2 mm 3 m/s 758 mmHg 79%
    20:00 +20°C° 0.2 mm 2 m/s 758 mmHg 83%
    21:00 +20°C° 0.2 mm 2 m/s 759 mmHg 87%
    22:00 +20°C° 1.3 mm 1 m/s 759 mmHg 90%
    23:00 +20°C° 1.3 mm 1 m/s 758 mmHg 92%
    Mostrar mais